Preston, MN

6:12 AM CDT on May 25, 2017 (GMT -0500)
Preston

Weather History for KFKA - December, 2012

Change the Weather History Date:

Friday, December 14, 2012

  Actual Average (KRST) Record (KRST)
Temperature  
Mean Temperature 32 °F -  
Max Temperature 43 °F 27 °F 52 °F (1998)
Min Temperature 20 °F 12 °F -21 °F (1917)
Degree Days  
Heating Degree Days 34    
Moisture  
Dew Point 26 °F    
Average Humidity 77    
Maximum Humidity 94    
Minimum Humidity 58    
Precipitation  
Precipitation 0.00 in - - ()
Sea Level Pressure  
Sea Level Pressure 30.00 in    
Wind  
Wind Speed 5 mph (SE)    
Max Wind Speed 14 mph    
Max Gust Speed 17 mph    
Visibility 10 miles    
Events      
Averages and records for this station are not official NWS values.
T = Trace of Precipitation, MM = Missing Value Source: NWS Daily Summary

Daily Weather History Graph

Daily Weather History Graph

Search for Another Location

Airport or City:

Trip Planner

Search our weather history database for the weather conditions in past years. The results will help you decide how hot, cold, wet, or windy it might be!

Date:

Astronomy

Dec. 14, 2012 Rise Set
Actual Time 7:35 AM CST 4:32 PM CST
Civil Twilight 7:02 AM CST 5:05 PM CST
Nautical Twilight 6:25 AM CST 5:41 PM CST
Astronomical Twilight 5:51 AM CST 6:16 PM CST
Moon 8:38 AM CST (12/14) 6:27 PM CST (12/14)
Length of Visible Light 10h 02m
Length of Day
8h 57m
Waxing Crescent, 3% of the Moon is Illuminated
Dec 14
Waxing Crescent
Dec 19
First Quarter
Dec 28
Full
Jan 4
Last Quarter
Jan 11
New

Hourly Weather History & Observations

Time (CST) Temp. Windchill Dew Point Humidity Pressure Visibility Wind Dir Wind Speed Gust Speed Precip Events Conditions
12:09 AM 24.4 °F - 21.2 °F 87% 30.10 in 10.0 mi Calm Calm - N/A   Clear
12:30 AM 23.9 °F - 21.0 °F 89% 30.10 in 10.0 mi Calm Calm - N/A   Clear
12:50 AM 24.1 °F - 20.8 °F 87% 30.10 in 10.0 mi Calm Calm - N/A   Clear
1:09 AM 23.7 °F - 20.8 °F 89% 30.10 in 10.0 mi Calm Calm - N/A   Clear
1:30 AM 22.3 °F 17.6 °F 19.2 °F 88% 30.09 in 10.0 mi North 3.5 mph - N/A   Clear
1:49 AM 22.1 °F - 19.9 °F 91% 30.10 in 10.0 mi Calm Calm - N/A   Clear
2:10 AM 23.0 °F - 20.7 °F 91% 30.10 in 10.0 mi Calm Calm - N/A   Clear
2:50 AM 24.4 °F - 21.0 °F 87% 30.10 in 10.0 mi Calm Calm - N/A   Clear
3:10 AM 24.8 °F - 21.0 °F 86% 30.10 in 10.0 mi Calm Calm - N/A   Clear
3:30 AM 24.4 °F - 20.8 °F 86% 30.10 in 10.0 mi Calm Calm - N/A   Clear
3:50 AM 23.9 °F - 20.1 °F 85% 30.10 in 10.0 mi Calm Calm - N/A   Clear
4:10 AM 22.8 °F 18.2 °F 20.3 °F 90% 30.09 in 10.0 mi NE 3.5 mph - N/A   Clear
4:30 AM 20.8 °F - 18.5 °F 91% 30.09 in 7.0 mi Calm Calm - N/A   Clear
4:49 AM 20.1 °F - 18.7 °F 94% 30.09 in 7.0 mi Calm Calm - N/A   Clear
5:10 AM 21.0 °F 16.2 °F 19.2 °F 93% 30.08 in 7.0 mi NE 3.5 mph - N/A   Clear
5:30 AM 21.6 °F 16.8 °F 19.4 °F 91% 30.08 in 10.0 mi ENE 3.5 mph - N/A   Clear
5:50 AM 21.6 °F 16.8 °F 19.6 °F 92% 30.08 in 10.0 mi ENE 3.5 mph - N/A   Clear
6:10 AM 21.2 °F 16.4 °F 18.7 °F 90% 30.08 in 10.0 mi ESE 3.5 mph - N/A   Clear
6:30 AM 21.9 °F 15.7 °F 19.6 °F 91% 30.08 in 10.0 mi ESE 4.6 mph - N/A   Clear
6:50 AM 21.7 °F 15.5 °F 19.8 °F 92% 30.08 in 10.0 mi ESE 4.6 mph - N/A   Clear
7:10 AM 23.2 °F 17.2 °F 19.9 °F 87% 30.07 in 10.0 mi ENE 4.6 mph - N/A   Clear
7:30 AM 23.5 °F 19.1 °F 20.3 °F 87% 30.08 in 10.0 mi SE 3.5 mph - N/A   Clear
7:50 AM 21.0 °F 14.6 °F 18.5 °F 90% 30.09 in 7.0 mi SSE 4.6 mph - N/A   Clear
8:10 AM 21.2 °F 14.9 °F 19.0 °F 91% 30.09 in 7.0 mi SSE 4.6 mph - N/A   Clear
8:50 AM 24.8 °F 17.9 °F 21.7 °F 88% 30.08 in 10.0 mi SE 5.8 mph - N/A   Clear
9:09 AM 26.4 °F 19.8 °F 22.5 °F 85% 30.08 in 10.0 mi SE 5.8 mph - N/A   Clear
9:30 AM 28.2 °F 22.0 °F 23.2 °F 81% 30.09 in 10.0 mi SE 5.8 mph - N/A   Clear
9:50 AM 29.7 °F 23.7 °F 23.9 °F 79% 30.08 in 10.0 mi SE 5.8 mph - N/A   Clear
10:10 AM 30.6 °F 23.1 °F 24.1 °F 77% 30.07 in 10.0 mi SE 8.1 mph - N/A   Clear
10:50 AM 32.5 °F 25.5 °F 25.5 °F 75% 30.05 in 10.0 mi SE 8.1 mph - N/A   Clear
11:10 AM 35.4 °F 29.0 °F 26.2 °F 69% 30.04 in 10.0 mi SE 8.1 mph - N/A   Clear
11:30 AM 37.4 °F 31.4 °F 26.8 °F 66% 30.03 in 10.0 mi SE 8.1 mph - N/A   Clear
11:50 AM 38.5 °F 32.7 °F 27.3 °F 64% 30.02 in 10.0 mi SE 8.1 mph - N/A   Clear
12:10 PM 40.1 °F 34.7 °F 27.9 °F 62% 30.01 in 10.0 mi SE 8.1 mph - N/A   Clear
12:30 PM 40.5 °F 34.6 °F 27.7 °F 60% 30.01 in 10.0 mi SE 9.2 mph - N/A   Clear
12:50 PM 41.4 °F 35.7 °F 28.4 °F 60% 30.00 in 10.0 mi SE 9.2 mph - N/A   Clear
1:10 PM 41.9 °F 35.4 °F 28.4 °F 59% 29.99 in 10.0 mi SE 11.5 mph - N/A   Clear
1:30 PM 42.3 °F 37.3 °F 28.6 °F 58% 29.97 in 10.0 mi SE 8.1 mph - N/A   Clear
1:50 PM 42.8 °F 37.5 °F 28.9 °F 58% 29.97 in 10.0 mi SE 9.2 mph - N/A   Clear
2:10 PM 42.1 °F 36.6 °F 29.1 °F 60% 29.96 in 10.0 mi SE 9.2 mph - N/A   Clear
2:30 PM 42.4 °F 37.5 °F 29.3 °F 60% 29.95 in 10.0 mi SE 8.1 mph - N/A   Clear
2:50 PM 43.0 °F 37.2 °F 29.3 °F 59% 29.94 in 10.0 mi SE 10.4 mph - N/A   Clear
3:10 PM 41.9 °F 35.4 °F 29.1 °F 61% 29.93 in 10.0 mi ESE 11.5 mph - N/A   Clear
3:30 PM 41.0 °F 34.7 °F 29.1 °F 63% 29.94 in 10.0 mi SE 10.4 mph - N/A   Clear
3:50 PM 40.5 °F 35.1 °F 29.1 °F 64% 29.94 in 10.0 mi SE 8.1 mph - N/A   Clear
4:09 PM 39.7 °F 33.7 °F 28.9 °F 65% 29.94 in 10.0 mi SE 9.2 mph - N/A   Clear
4:30 PM 39.2 °F 33.6 °F 28.4 °F 65% 29.93 in 10.0 mi SE 8.1 mph - N/A   Clear
4:50 PM 38.5 °F 32.1 °F 28.4 °F 67% 29.92 in 10.0 mi SE 9.2 mph - N/A   Clear
5:10 PM 38.3 °F 33.2 °F 28.4 °F 68% 29.92 in 10.0 mi ESE 6.9 mph - N/A   Clear
5:30 PM 37.9 °F 31.5 °F 28.4 °F 69% 29.92 in 10.0 mi SE 9.2 mph - N/A   Clear
5:50 PM 37.6 °F 30.0 °F 28.6 °F 70% 29.92 in 10.0 mi SE 11.5 mph - N/A   Clear
6:30 PM 37.9 °F 29.6 °F 29.1 °F 71% 29.92 in 10.0 mi SE 13.8 mph - N/A   Clear
6:49 PM 37.8 °F 30.2 °F 29.3 °F 72% 29.92 in 10.0 mi SE 11.5 mph - N/A   Clear
7:10 PM 37.2 °F 29.6 °F 29.7 °F 74% 29.92 in 10.0 mi SE 11.5 mph - N/A   Clear
7:30 PM 36.9 °F 30.1 °F 30.0 °F 76% 29.92 in 10.0 mi SE 9.2 mph - N/A   Clear
7:50 PM 36.9 °F 30.1 °F 30.2 °F 77% 29.91 in 10.0 mi SE 9.2 mph - N/A   Clear
8:09 PM 37.4 °F 30.3 °F 30.6 °F 76% 29.90 in 10.0 mi SE 10.4 mph - N/A   Clear
8:30 PM 37.8 °F 31.3 °F 30.7 °F 76% 29.90 in 10.0 mi SE 9.2 mph - N/A   Clear
8:50 PM 38.5 °F 32.1 °F 30.7 °F 74% 29.89 in 10.0 mi SE 9.2 mph - N/A   Mostly Cloudy
9:10 PM 38.7 °F 31.4 °F 30.9 °F 74% 29.88 in 10.0 mi SE 11.5 mph - N/A   Overcast
9:30 PM 39.2 °F 31.6 °F 30.9 °F 72% 29.87 in 10.0 mi SSE 12.7 mph 17.3 mph N/A   Overcast
9:50 PM 39.2 °F 31.6 °F 30.9 °F 72% 29.86 in 10.0 mi SE 12.7 mph - N/A   Overcast
10:10 PM 39.2 °F 32.0 °F 31.1 °F 73% 29.86 in 10.0 mi SSE 11.5 mph - N/A   Overcast
10:30 PM 39.2 °F 31.6 °F 31.1 °F 73% 29.84 in 10.0 mi SE 12.7 mph 17.3 mph N/A   Overcast
10:50 PM 39.4 °F 32.7 °F 31.1 °F 72% 29.84 in 10.0 mi SE 10.4 mph - N/A   Overcast
11:10 PM 39.6 °F 33.0 °F 31.1 °F 72% 29.82 in 10.0 mi SE 10.4 mph - N/A   Overcast
11:30 PM 39.6 °F 33.5 °F 31.3 °F 72% 29.82 in 10.0 mi SSE 9.2 mph - N/A   Overcast
11:50 PM 39.4 °F 32.7 °F 31.5 °F 73% 29.82 in 10.0 mi SE 10.4 mph - N/A   Overcast